Location: Newark
(44.3290°N, 23.7757°E)
Time: 08:36:35
(UTC+00:00)

Tiangong - Visible Passes

Search period start: 23 September 2023 00:00
Search period end: 03 October 2023 00:00
Orbit: 374 x 385 km, 41.5° (Epoch: 22 September)

Date Brightness Start Highest point End Pass type
(mag) Time Alt. Az. Time Alt. Az. Time Alt. Az.
29 Sep -0.5 17:28:47 10° SSW 17:31:00 20° SSE 17:31:00 20° SSE visible
30 Sep -0.3 18:03:02 10° SW 18:04:35 23° SW 18:04:35 23° SW visible
01 Oct -0.9 17:01:43 10° SW 17:04:25 27° SSE 17:05:57 18° ESE visible
01 Oct 1.1 18:37:48 10° WSW 18:38:02 12° WSW 18:38:02 12° WSW visible
02 Oct -1.7 17:36:12 10° WSW 17:39:12 44° S 17:39:16 44° SSE visible
